North Platte, NE

4:39 PM CDT on May 24, 2017 (GMT -0500)
North Platte Regional-Bird

Weather History for KLBF - January, 2015

Change the Weather History Date:

Friday, January 9, 2015

  Actual Average Record
Temperature  
Mean Temperature 10 °F 25 °F  
Max Temperature 21 °F 39 °F 62 °F (1928)
Min Temperature -1 °F 11 °F -27 °F (1881)
Degree Days  
Heating Degree Days 55 40  
Month to date heating degree days 451 365  
Since 1 July heating degree days 3138 3145  
Cooling Degree Days 0 0  
Month to date cooling degree days 0 0  
Year to date cooling degree days 0 0  
Moisture  
Dew Point -1 °F    
Average Humidity 61    
Maximum Humidity 83    
Minimum Humidity 39    
Precipitation  
Precipitation 0.00 in 0.01 in 0.37 in (2011)
Month to date precipitation 0.05 0.11  
Year to date precipitation 0.05 0.11  
Snow  
Snow 0.00 in 0.10 in 5.80 in (2011)
Month to date snowfall 1.5 1.4  
Since 1 July snowfall 10.6 12.2  
Snow Depth 1.00 in    
Sea Level Pressure  
Sea Level Pressure 30.55 in    
Wind  
Wind Speed 7 mph (West)    
Max Wind Speed 20 mph    
Max Gust Speed 26 mph    
Visibility 10 miles    
Events      
T = Trace of Precipitation, MM = Missing Value Source: NWS Daily Summary

Daily Weather History Graph

Daily Weather History Graph

Search for Another Location

Airport or City:

Trip Planner

Search our weather history database for the weather conditions in past years. The results will help you decide how hot, cold, wet, or windy it might be!

Date:

Astronomy

Jan. 09, 2015 Rise Set
Actual Time 8:07 AM CST 5:32 PM CST
Civil Twilight 7:36 AM CST 6:02 PM CST
Nautical Twilight 7:02 AM CST 6:37 PM CST
Astronomical Twilight 6:29 AM CST 7:10 PM CST
Moon 10:10 PM CST (1/9) 10:22 AM CST (1/9)
Length of Visible Light 10h 25m
Length of Day
9h 24m
Waning Gibbous, 82% of the Moon is Illuminated
Jan 9
Waning Gibbous
Jan 13
Last Quarter
Jan 20
New
Jan 26
First Quarter
Feb 3
Full

Hourly Weather History & Observations

Time (CST) Temp. Windchill Dew Point Humidity Pressure Visibility Wind Dir Wind Speed Gust Speed Precip Events Conditions
12:53 AM 12.0 °F -4.0 °F -0.9 °F 56% 30.59 in 10.0 mi NW 15.0 mph - N/A   Mostly Cloudy
1:53 AM 9.0 °F -4.2 °F -4.0 °F 56% 30.61 in 10.0 mi NW 9.2 mph - N/A   Clear
2:53 AM 7.0 °F -7.5 °F -4.0 °F 61% 30.62 in 10.0 mi NW 10.4 mph - N/A   Clear
3:53 AM 6.1 °F -9.5 °F -4.0 °F 63% 30.63 in 10.0 mi NNW 11.5 mph - N/A   Clear
4:53 AM 3.9 °F -9.4 °F -4.0 °F 70% 30.63 in 10.0 mi NW 8.1 mph - N/A   Clear
5:53 AM 3.2 °F -10.3 °F -5.8 °F 66% 30.47 in 10.0 mi WNW 8.1 mph - N/A   Clear
6:53 AM 1.9 °F -7.6 °F -5.1 °F 72% 30.65 in 10.0 mi West 4.6 mph - N/A   Clear
7:53 AM 1.9 °F -7.6 °F -4.0 °F 76% 30.66 in 10.0 mi West 4.6 mph - N/A   Clear
8:53 AM 3.0 °F -4.4 °F -2.9 °F 76% 30.67 in 10.0 mi NW 3.5 mph - N/A   Clear
9:53 AM 9.0 °F -4.2 °F -0.0 °F 67% 30.68 in 10.0 mi WNW 9.2 mph - N/A   Clear
10:53 AM 12.9 °F -0.2 °F 1.9 °F 62% 30.68 in 10.0 mi WNW 10.4 mph - N/A   Clear
11:53 AM 15.1 °F 5.2 °F 1.0 °F 54% 30.63 in 10.0 mi WNW 6.9 mph - N/A   Clear
12:53 PM 17.1 °F 8.7 °F 1.0 °F 50% 30.60 in 10.0 mi WNW 5.8 mph - N/A   Clear
1:53 PM 18.0 °F 9.8 °F 1.9 °F 50% 30.56 in 10.0 mi Variable 5.8 mph - N/A   Clear
2:53 PM 19.4 °F 11.5 °F 1.4 °F 46% 30.40 in 10.0 mi WSW 5.8 mph - N/A   Clear
3:53 PM 21.0 °F 13.4 °F -0.9 °F 38% 30.53 in 10.0 mi West 5.8 mph - N/A   Clear
4:53 PM 19.0 °F 11.1 °F -0.0 °F 43% 30.53 in 10.0 mi SSW 5.8 mph - N/A   Clear
5:53 PM 17.1 °F 11.7 °F 1.0 °F 50% 30.52 in 10.0 mi South 3.5 mph - N/A   Clear
6:53 PM 10.0 °F 1.8 °F 3.9 °F 76% 30.52 in 10.0 mi South 4.6 mph - N/A   Clear
7:53 PM 10.0 °F 0.4 °F -0.0 °F 64% 30.49 in 10.0 mi SSE 5.8 mph - N/A   Clear
8:53 PM 5.0 °F -2.1 °F -0.0 °F 80% 30.48 in 10.0 mi East 3.5 mph - N/A   Clear
9:53 PM 6.1 °F -2.8 °F -0.9 °F 73% 30.43 in 10.0 mi SE 4.6 mph - N/A   Clear
10:53 PM 6.1 °F -4.3 °F -0.9 °F 73% 30.39 in 10.0 mi ESE 5.8 mph - N/A   Clear
11:53 PM 3.9 °F -6.9 °F -0.9 °F 80% 30.34 in 10.0 mi ESE 5.8 mph - N/A   Clear